Wind_Speed
41 42 44 45 47 47 49 52 54 54 49 46 49 54 60 62 63 66 69 70 69 67 69 71 72 71 69 67 64 60 57 56 55 57 58 57 55 53
42 43 44 44 44 44 46 48 49 49 44 40 43 47 53 57 60 61 63 66 67 65 65 69 72 72 70 68 66 62 59 57 56 57 58 58 58 56
43 43 42 42 42 42 43 43 44 43 42 39 40 43 47 51 57 60 62 63 64 64 62 65 70 71 70 69 67 65 62 60 58 59 59 58 59 58
42 42 41 41 40 39 39 38 38 37 37 37 37 38 41 44 49 54 58 61 61 63 60 61 68 70 70 70 68 67 66 63 61 61 60 59 59 58
41 41 41 40 38 36 35 34 33 32 31 31 31 33 35 38 41 46 51 56 58 60 58 57 64 69 69 69 68 68 68 67 65 62 63 63 62 61
41 41 41 40 37 34 34 33 31 30 28 26 25 28 31 34 37 40 44 50 54 57 54 51 57 65 69 69 68 68 69 70 70 66 63 64 64 64
43 42 41 40 36 34 33 32 31 30 28 25 23 24 27 31 34 36 40 45 51 55 53 50 52 59 64 67 68 69 71 72 72 70 66 64 65 65
45 43 41 40 38 35 33 32 32 32 30 27 24 22 23 27 30 32 37 43 50 53 55 53 50 53 58 63 65 68 70 72 75 74 69 66 65 66
45 44 42 41 40 38 34 33 33 34 34 31 28 26 24 24 25 27 31 38 46 52 57 56 52 49 51 56 60 63 66 68 70 73 71 66 64 63
46 45 44 43 43 40 37 35 35 36 36 36 34 30 28 27 27 26 25 28 36 45 55 59 58 55 53 54 57 60 62 65 66 67 73 75 72 68
46 45 44 45 44 42 40 38 37 38 38 38 38 37 34 32 32 32 30 29 28 35 46 55 61 63 62 60 59 58 58 60 64 67 68 70 70 70
45 45 45 45 46 45 44 42 41 40 40 41 41 41 40 38 38 37 35 34 32 32 38 46 55 63 66 67 67 66 62 59 59 62 66 68 67 68
45 46 46 46 47 47 48 47 46 45 44 44 43 43 43 43 43 43 42 40 37 36 37 42 47 54 62 67 71 73 73 71 67 64 63 63 63 63
44 45 46 47 48 49 51 52 51 51 50 48 47 46 46 46 47 47 48 47 46 45 43 45 47 51 55 60 67 73 76 77 77 75 72 68 67 66
45 46 47 48 49 51 53 54 55 55 54 53 52 52 51 51 51 52 52 53 54 55 54 54 55 56 59 60 63 68 74 78 81 81 79 77 76 74
46 47 49 51 52 54 55 57 59 59 58 58 58 58 58 57 58 59 59 59 59 60 62 63 64 66 67 69 70 71 73 75 78 81 80 79 79 79
48 50 52 54 56 57 59 60 61 62 62 64 64 64 64 65 65 66 67 67 66 66 67 70 72 74 77 78 78 77 75 75 74 74 76 78 78 77
53 55 56 58 59 61 62 63 65 66 68 70 71 72 72 73 73 73 74 74 72 71 71 74 76 78 80 80 79 76 75 74 70 68 70 73 76 76
57 59 60 62 63 65 66 68 70 72 74 76 77 78 79 80 80 79 77 75 73 72 73 74 73 73 71 68 64 65 66 67 66 65 66 66 67 67
61 63 65 66 68 70 72 74 76 78 80 81 82 83 83 83 81 77 75 72 70 69 67 64 62 61 58 54 52 54 55 60 64 63 61 60 60 60
68 70 72 73 75 76 78 81 82 84 84 84 83 82 79 77 72 68 65 63 60 56 53 50 49 48 47 47 49 51 52 56 60 59 56 55 55 54
75 76 78 80 82 83 84 85 86 84 82 79 75 70 66 62 58 54 50 47 44 42 39 37 39 41 45 47 48 50 51 52 56 56 54 53 52 51
81 82 83 84 85 84 82 80 77 73 68 64 59 53 49 44 40 37 35 32 30 30 30 31 34 39 45 46 46 47 48 49 51 51 51 50 50 51
Wind_Direction
274 275 278 280 283 286 290 296 299 295 284 272 262 254 249 247 246 245 244 245 247 247 243 240 238 237 237 236 235 236 238 238 237 236 237 239 242 244
273 275 278 280 283 288 295 302 304 297 285 273 264 256 251 248 248 246 243 243 245 247 245 240 238 236 236 235 234 234 236 236 235 236 236 239 241 243
272 274 277 279 283 290 298 306 308 300 287 277 269 261 255 252 251 249 244 241 241 245 244 239 237 236 235 235 235 234 234 235 235 236 238 240 243 244
271 273 275 279 284 291 300 308 311 306 295 284 273 263 257 253 251 250 245 240 239 242 243 240 236 234 234 235 235 234 234 235 236 236 237 238 241 244
271 273 275 279 284 291 298 305 311 311 306 295 280 265 258 254 250 247 243 238 236 238 239 237 234 233 233 234 235 234 234 235 237 239 240 241 242 245
272 273 274 278 283 288 293 299 307 312 312 307 290 270 263 258 253 247 240 236 233 233 233 231 231 232 232 233 234 235 235 236 237 238 241 244 245 246
271 272 272 275 281 286 289 294 300 305 309 311 303 283 271 264 258 249 240 234 231 231 231 230 230 231 232 233 234 237 237 235 235 237 240 244 248 249
269 270 270 272 276 281 286 291 294 296 300 304 307 302 285 273 265 256 245 236 230 230 231 230 232 232 233 234 234 235 236 237 235 236 238 242 245 248
267 267 267 268 272 277 283 288 290 292 294 298 300 301 301 292 280 268 255 242 234 232 232 230 231 231 233 234 234 233 234 236 237 236 234 238 240 243
266 265 265 265 269 274 279 282 286 289 292 294 295 295 293 293 292 289 277 260 244 237 235 233 234 233 230 231 233 233 234 233 233 234 235 236 238 240
266 264 264 264 267 271 275 278 280 284 288 290 291 292 291 290 290 288 286 280 264 247 241 238 236 237 236 234 232 233 235 237 237 235 234 234 237 240
268 266 264 264 265 268 272 275 278 281 284 287 289 290 290 289 289 288 285 281 276 263 251 244 239 239 239 240 240 239 238 238 239 240 238 237 238 240
270 268 266 265 266 269 272 275 277 279 280 282 284 285 287 288 288 287 285 282 278 272 263 255 248 243 241 240 242 244 244 242 241 240 239 239 239 242
270 269 267 267 268 271 273 276 278 279 280 280 282 283 283 284 285 285 284 281 278 276 272 265 258 253 248 243 241 241 243 243 242 242 241 239 239 240
271 270 268 268 270 272 274 276 278 279 279 280 281 282 282 282 282 282 281 278 277 276 274 271 265 260 255 252 247 243 240 240 239 239 239 239 239 241
273 272 271 271 272 274 276 277 278 279 279 280 281 282 282 282 282 282 280 278 275 273 272 270 267 263 260 255 251 247 243 240 238 237 236 235 237 239
276 276 276 276 277 277 278 278 279 279 280 281 282 282 282 282 283 283 281 279 277 273 270 268 265 262 259 256 253 247 241 239 238 237 236 233 232 233
279 279 279 279 278 278 279 279 280 281 281 282 283 283 284 284 284 283 282 279 277 273 269 265 262 260 257 255 252 248 239 235 235 235 235 236 236 235
279 279 279 279 279 279 279 280 281 282 283 284 285 286 286 286 285 283 281 278 274 271 266 262 259 256 253 251 248 244 238 231 230 231 234 235 236 238
280 280 280 280 280 281 282 282 283 284 284 285 286 286 285 284 283 281 278 274 271 267 263 259 253 249 247 242 234 234 234 228 227 230 232 234 236 238
283 283 283 282 283 283 283 284 284 285 286 286 286 285 283 281 279 276 272 269 266 262 257 251 245 239 232 224 221 225 227 225 224 226 228 231 234 236
283 283 283 284 284 284 285 286 286 287 287 286 284 282 279 276 272 269 265 261 258 253 247 238 230 222 215 212 216 221 224 222 221 222 224 228 230 233
284 285 285 285 285 286 287 287 287 286 285 283 281 278 274 269 264 259 254 249 243 235 227 221 215 209 207 210 216 221 222 220 218 219 222 226 229 231
Height
5587 5587 5587 5586 5584 5581 5577 5571 5564 5557 5555 5555 5556 5559 5561 5568 5575 5581 5589 5596 5603 5610 5617 5625 5634 5642 5651 5659 5665 5671 5676 5680 5684 5689 5696 5701 5706 5710
5576 5576 5575 5574 5571 5567 5562 5555 5547 5540 5539 5542 5541 5543 5544 5550 5556 5562 5570 5577 5584 5591 5598 5606 5615 5625 5634 5643 5650 5657 5663 5668 5672 5676 5682 5687 5693 5698
5564 5564 5563 5562 5559 5555 5549 5543 5535 5527 5525 5528 5528 5529 5531 5534 5539 5544 5551 5558 5566 5574 5580 5588 5597 5607 5617 5626 5635 5642 5649 5654 5659 5663 5669 5674 5679 5685
5552 5552 5551 5550 5548 5543 5538 5532 5525 5518 5514 5514 5515 5515 5517 5519 5523 5527 5533 5540 5549 5558 5564 5571 5580 5590 5600 5609 5618 5627 5634 5641 5646 5651 5657 5662 5666 5671
5541 5540 5540 5538 5536 5532 5527 5522 5516 5509 5505 5503 5503 5503 5504 5505 5508 5512 5516 5524 5532 5542 5549 5556 5564 5574 5583 5593 5602 5611 5619 5627 5633 5637 5642 5648 5653 5658
5530 5529 5528 5527 5525 5521 5517 5513 5508 5502 5498 5495 5494 5494 5494 5495 5495 5498 5502 5508 5517 5526 5535 5542 5550 5558 5568 5578 5587 5595 5603 5610 5617 5623 5629 5634 5639 5645
5518 5517 5517 5516 5513 5510 5507 5504 5500 5496 5492 5489 5487 5486 5486 5485 5485 5486 5490 5495 5504 5512 5521 5529 5537 5545 5553 5562 5570 5579 5586 5594 5601 5608 5614 5620 5625 5631
5505 5504 5504 5503 5501 5499 5497 5495 5492 5488 5485 5482 5480 5479 5478 5476 5476 5476 5479 5484 5492 5501 5508 5517 5523 5531 5539 5547 5554 5562 5570 5577 5584 5591 5598 5604 5610 5615
5491 5491 5491 5490 5489 5488 5487 5485 5482 5478 5476 5475 5474 5473 5472 5471 5469 5469 5470 5473 5480 5487 5495 5505 5512 5520 5526 5532 5538 5545 5553 5560 5567 5574 5581 5587 5593 5599
5478 5478 5477 5477 5477 5477 5477 5475 5472 5468 5466 5465 5465 5465 5465 5464 5463 5463 5463 5465 5470 5476 5482 5492 5499 5506 5512 5517 5524 5530 5536 5542 5549 5555 5563 5570 5576 5582
5463 5464 5464 5464 5464 5464 5464 5463 5462 5459 5457 5454 5453 5453 5455 5455 5455 5455 5456 5457 5460 5465 5468 5476 5484 5489 5496 5503 5509 5515 5520 5526 5532 5538 5544 5551 5557 5563
5449 5449 5449 5450 5450 5449 5450 5450 5449 5448 5447 5444 5442 5441 5441 5442 5443 5444 5446 5447 5449 5453 5456 5460 5467 5472 5480 5488 5493 5499 5505 5510 5516 5522 5528 5534 5539 5544
5435 5435 5434 5434 5434 5434 5434 5434 5434 5435 5435 5433 5432 5430 5428 5428 5429 5429 5431 5433 5436 5440 5444 5447 5451 5455 5462 5470 5474 5480 5486 5493 5499 5505 5511 5517 5522 5527
5421 5420 5420 5419 5419 5419 5418 5418 5417 5418 5418 5419 5418 5417 5416 5415 5415 5415 5415 5416 5419 5423 5427 5431 5434 5437 5442 5448 5454 5460 5465 5472 5478 5486 5494 5500 5505 5510
5406 5405 5405 5404 5403 5403 5402 5402 5401 5400 5400 5400 5401 5400 5400 5400 5400 5401 5401 5402 5403 5404 5406 5410 5414 5417 5421 5427 5433 5438 5443 5449 5455 5464 5472 5479 5486 5491
5390 5389 5388 5388 5387 5386 5385 5384 5383 5381 5381 5380 5381 5381 5380 5381 5381 5381 5383 5385 5386 5388 5387 5388 5390 5393 5397 5402 5408 5414 5421 5427 5434 5440 5448 5457 5464 5471
5373 5372 5371 5369 5368 5367 5366 5365 5363 5362 5360 5359 5359 5359 5359 5358 5359 5359 5359 5361 5363 5365 5366 5364 5364 5366 5369 5374 5379 5389 5397 5405 5413 5419 5426 5434 5442 5450
5355 5353 5352 5350 5349 5348 5346 5344 5342 5340 5338 5337 5335 5334 5333 5333 5333 5333 5332 5333 5335 5337 5337 5336 5335 5337 5340 5343 5351 5361 5372 5383 5393 5400 5406 5414 5422 5430
5335 5333 5331 5330 5328 5326 5324 5322 5319 5316 5313 5311 5309 5306 5305 5304 5303 5303 5303 5302 5303 5305 5306 5306 5305 5307 5312 5319 5327 5337 5350 5364 5374 5382 5389 5397 5406 5415
5315 5313 5310 5307 5305 5302 5299 5296 5294 5290 5287 5284 5281 5278 5276 5274 5273 5272 5271 5270 5271 5273 5275 5277 5280 5285 5292 5302 5311 5322 5333 5346 5356 5365 5374 5383 5391 5398
5292 5288 5285 5282 5279 5276 5273 5270 5267 5263 5259 5256 5253 5249 5246 5244 5244 5243 5243 5242 5243 5246 5250 5255 5261 5268 5276 5286 5297 5308 5318 5328 5339 5350 5360 5368 5376 5385
5267 5263 5259 5255 5252 5249 5245 5241 5237 5233 5229 5226 5223 5220 5218 5217 5217 5218 5219 5221 5224 5227 5232 5238 5245 5253 5264 5275 5287 5297 5306 5316 5326 5336 5346 5357 5365 5374
5238 5234 5230 5226 5223 5220 5216 5212 5208 5204 5201 5198 5196 5195 5194 5196 5197 5200 5203 5207 5211 5216 5222 5229 5237 5246 5257 5267 5277 5287 5297 5306 5316 5325 5335 5345 5355 5362